Retour au catalogue

FENGYUN 1C DEB

ActifSSO
NORAD 30173·DEBRIS·🇨🇳 China

Lancé May 10, 1999 depuis Taiyuan Satellite Launch Center

Loading…

Prochains Passages (prochaines 24 heures)

TLE

FraisSource: Space-Track

Époque: Sep 14, 2026, 16:05 UTC

1 30173U 99025UE  26257.67049036  .00001562  00000-0  84109-3 0  9995
2 30173  98.9610 333.4853 0080267 230.1420 294.0839 14.12674900  4387

Suivez FENGYUN 1C DEB en temps réel avec AllMySat

Download on the App Store